Temp
9 9 9 9 9 10 10 11 13 14 14 15 16 16 17 18 19 19 20 21 22 22 22 22 22 23 23 23 23 23 23 23 24 24 24 23 24 24 24 24 24 24 24 24 25 25 25 25 25 25 26 25 23 23 24 23 22 24 25 24 23 22 23 23 23 23 24 24 24 24 24 25 25 24 23 22 22 21 20 18 17 17 16 17 18 18 18 18
9 9 9 9 9 10 10 10 12 14 14 15 15 16 17 18 18 19 20 21 22 22 22 22 22 23 22 22 23 23 23 23 23 23 23 23 23 24 24 24 24 24 24 25 25 24 24 24 23 23 25 25 24 24 24 23 23 24 24 23 23 23 23 23 23 23 23 24 24 24 24 25 25 24 24 24 23 21 22 20 17 18 17 17 17 17 18 18
8 9 9 9 9 9 10 10 11 13 14 15 15 15 16 17 18 19 20 21 21 22 22 22 22 22 22 22 22 23 23 23 23 23 23 23 23 24 24 24 24 24 24 24 24 24 24 24 23 24 25 25 24 24 25 24 24 24 23 24 23 23 23 22 23 23 24 24 24 24 23 24 24 24 24 24 23 22 24 22 20 20 18 17 16 16 18 18
8 8 8 9 9 9 10 10 10 11 14 15 15 15 16 17 18 19 19 20 21 21 21 22 22 22 22 22 22 23 23 23 23 23 23 23 23 24 24 24 24 24 24 24 24 24 24 24 24 25 25 25 24 24 25 24 24 24 23 25 24 23 24 23 23 23 23 23 24 25 23 24 24 23 24 24 23 22 23 23 23 23 19 17 16 15 16 16
8 8 8 9 9 9 10 10 10 11 13 15 15 15 16 16 17 18 19 20 20 21 21 21 21 21 22 22 22 22 23 23 23 23 23 23 24 24 24 24 24 24 24 24 25 25 25 24 24 25 25 25 25 25 25 23 23 24 23 24 23 23 24 24 23 23 23 23 24 24 24 24 23 23 24 24 24 24 24 23 23 23 19 16 16 14 15 15
8 8 8 9 9 9 10 11 11 11 12 14 15 16 16 17 17 18 19 19 20 20 20 21 21 21 22 22 22 22 23 23 23 23 23 23 24 24 24 24 24 24 24 25 25 25 24 24 24 25 25 25 24 24 25 23 23 24 23 23 23 23 24 24 23 23 23 24 24 24 24 23 23 24 23 23 25 23 21 20 20 19 16 15 15 14 14 13
8 8 8 8 9 9 10 11 12 12 14 15 15 16 16 17 18 18 19 19 20 20 20 20 20 21 22 22 22 22 23 23 22 23 23 23 24 24 24 24 24 24 24 25 24 24 24 25 25 24 24 24 24 24 24 23 24 25 24 23 23 23 24 24 23 23 24 25 24 23 23 23 24 24 22 23 23 20 17 15 15 15 14 15 14 13 13 12
8 8 9 9 9 9 10 12 13 14 15 15 16 16 17 17 18 18 18 19 19 20 20 20 20 21 21 22 22 22 23 23 22 23 23 23 24 24 24 24 24 24 24 24 24 23 23 24 24 23 24 24 24 24 23 23 24 24 24 23 23 23 23 23 23 23 23 24 22 22 23 23 24 22 22 24 22 17 15 14 13 14 14 14 15 13 11 11
8 9 9 9 9 9 10 11 13 15 15 16 16 16 16 17 17 17 18 19 19 20 20 20 20 21 21 21 21 23 23 22 22 23 23 23 23 24 24 24 24 24 24 23 23 24 24 23 23 23 25 23 23 24 23 24 24 23 23 23 24 24 23 22 23 23 23 23 22 22 23 23 22 21 23 24 20 16 15 15 14 15 15 15 15 13 11 11
9 9 9 9 8 9 9 10 11 14 15 16 17 16 16 16 16 17 18 18 19 19 19 20 20 20 21 20 21 23 23 21 22 23 23 23 23 23 24 24 24 24 24 23 23 23 23 23 22 22 24 24 23 23 22 24 23 23 23 23 23 23 22 22 23 23 22 22 22 23 23 22 21 21 23 22 16 15 16 16 15 15 15 15 14 12 11 11
9 9 9 9 9 9 9 9 10 12 14 16 17 17 17 17 17 17 18 18 19 19 19 20 20 20 21 20 22 23 22 21 22 22 23 23 23 23 23 23 24 24 23 23 22 22 22 23 21 21 23 24 23 22 22 23 22 22 23 24 23 22 23 22 23 22 21 22 22 22 23 22 21 21 24 20 15 15 17 16 15 15 15 14 14 13 11 11
9 9 9 9 9 9 9 9 10 11 13 15 16 17 18 17 17 17 17 18 18 19 19 19 20 20 20 20 22 22 21 21 22 22 22 22 23 23 23 23 23 23 23 22 22 22 23 23 22 23 23 23 23 23 23 22 22 22 23 24 23 23 24 23 22 22 22 23 22 22 22 22 22 22 22 18 15 15 16 16 15 15 14 13 13 13 11 11
10 10 10 10 10 11 11 10 10 10 11 14 16 17 18 17 17 17 17 18 18 18 19 19 20 20 20 21 21 21 21 21 21 22 22 22 22 22 22 23 23 23 23 23 22 23 23 23 24 23 22 23 23 22 22 22 22 23 22 22 23 23 24 22 21 21 22 22 21 22 22 23 24 23 19 15 14 16 16 16 15 14 14 13 13 13 12 11
10 10 10 10 11 12 12 11 10 10 11 13 16 18 18 17 17 17 17 18 18 18 18 19 19 19 20 21 21 20 20 20 21 21 21 21 22 22 22 22 22 23 23 23 23 23 23 23 23 23 21 22 22 21 22 22 22 22 21 21 21 21 23 23 20 21 22 21 21 22 21 22 25 23 19 14 14 16 17 16 15 14 14 13 12 12 13 11
10 10 10 10 11 12 12 12 11 11 12 14 17 18 17 17 17 17 17 18 17 18 18 19 19 19 20 21 20 20 20 20 21 21 21 21 21 22 22 22 22 22 23 23 23 23 23 23 23 23 22 21 22 22 22 22 21 22 21 21 20 20 22 23 21 21 23 21 20 22 21 22 24 23 18 14 14 16 18 17 15 15 14 13 12 12 12 11
11 10 10 10 10 11 12 12 12 13 14 16 17 17 17 16 16 17 17 17 17 18 18 18 19 19 20 20 19 19 19 19 20 21 21 21 21 22 21 22 22 22 22 22 23 23 23 23 21 21 22 22 22 23 22 21 21 21 21 21 20 20 21 22 22 20 22 22 21 22 22 22 23 21 16 14 15 16 17 17 15 15 14 13 12 12 12 11
11 11 10 10 10 10 11 11 12 13 14 15 16 16 16 16 16 17 17 17 18 18 18 18 18 19 20 19 19 19 19 19 20 20 20 20 21 22 21 21 21 21 22 22 23 22 22 22 20 20 21 21 21 22 21 20 21 20 20 20 20 20 20 21 22 21 21 22 22 21 21 22 23 21 17 15 15 15 17 17 16 15 14 13 12 12 12 11
11 11 11 10 10 10 10 10 11 12 13 14 15 16 16 16 16 17 17 17 17 18 18 18 18 20 20 19 19 19 19 19 20 19 20 20 21 21 21 21 20 20 21 21 21 21 21 20 20 21 21 20 20 22 21 20 21 21 20 20 20 20 20 21 22 22 21 21 22 21 20 21 22 21 19 17 15 16 17 17 16 15 14 14 13 12 12 11
11 11 11 11 10 10 10 10 10 12 12 13 15 16 16 16 16 16 16 17 18 19 20 19 19 21 21 19 18 18 18 19 19 19 20 20 20 21 21 20 20 20 21 21 21 20 20 20 20 21 21 20 21 22 23 22 23 22 21 21 21 21 21 21 22 22 21 21 21 21 21 21 21 21 21 18 16 16 16 16 16 16 15 14 13 13 12 12
11 11 11 11 10 10 9 9 10 11 11 13 14 15 17 17 18 18 16 16 17 18 19 19 19 20 20 18 17 17 18 18 18 19 19 20 20 20 20 20 20 20 20 21 21 19 20 20 20 21 22 21 21 22 23 22 21 22 22 21 21 21 21 21 22 22 20 21 21 21 20 21 21 21 21 19 16 16 16 16 16 16 15 15 14 13 13 12
11 11 11 11 10 10 10 9 10 10 10 11 12 14 17 18 19 18 16 16 16 15 17 18 18 19 20 18 17 17 19 18 18 18 19 20 20 20 20 19 20 20 19 19 19 19 19 20 20 21 22 21 21 21 21 20 20 21 21 21 20 20 20 22 22 21 20 20 21 21 20 20 20 20 20 19 18 18 18 17 17 17 16 15 14 14 13 12
11 11 11 11 11 10 10 10 10 10 9 10 11 12 13 14 15 16 16 18 18 16 16 16 16 18 18 17 17 18 19 19 18 18 18 19 20 20 20 19 20 20 18 18 19 19 19 19 20 20 19 19 20 19 19 20 20 20 20 20 20 19 20 21 20 20 19 20 21 21 20 20 20 19 20 19 18 19 18 18 18 18 17 16 15 14 13 12
12 11 11 11 11 10 10 9 10 9 9 10 10 10 11 13 14 14 15 17 18 17 17 16 17 18 18 18 18 18 20 20 19 18 18 19 19 19 19 19 19 19 18 19 20 19 19 20 20 19 17 19 20 19 19 20 20 20 19 19 20 19 20 21 20 19 20 20 20 20 19 19 19 19 20 20 19 19 19 18 18 18 18 17 16 15 14 13
12 11 11 11 11 10 9 9 9 9 10 10 10 12 13 14 14 14 16 17 18 18 17 17 17 18 18 19 19 19 20 20 20 19 18 18 19 18 19 19 18 18 18 19 20 19 20 21 20 18 18 19 20 19 19 20 20 20 19 19 20 20 20 21 20 19 20 19 19 19 19 19 19 19 20 20 19 19 19 18 18 18 17 17 16 15 14 13
13 12 11 11 11 10 10 9 9 9 10 9 11 14 14 14 14 14 16 18 18 18 18 17 17 18 19 19 19 19 19 20 20 19 18 18 19 19 19 19 19 19 19 18 18 18 20 20 19 19 18 18 19 20 19 19 20 20 20 20 21 21 21 20 19 19 20 20 18 18 20 20 19 19 20 20 19 20 20 19 19 19 17 16 16 16 14 13
13 12 12 11 11 10 9 9 9 9 10 10 13 16 14 14 14 13 16 18 17 18 18 18 19 20 20 19 18 19 20 19 18 18 18 18 19 20 20 19 19 20 18 18 18 18 19 19 19 20 20 19 18 18 19 19 19 20 20 20 20 21 21 20 19 19 19 19 17 17 19 19 19 20 21 21 21 22 21 20 20 19 18 17 16 16 14 12
12 12 12 11 11 10 9 10 10 9 10 12 15 16 15 15 14 14 17 17 17 19 19 18 18 20 20 18 18 19 20 19 17 17 17 18 19 20 20 19 19 19 18 18 19 18 19 19 19 19 20 19 18 18 19 19 19 20 19 19 20 20 20 20 19 19 18 18 17 17 18 18 18 19 20 21 21 21 20 20 20 19 18 17 16 15 14 12
12 12 12 11 11 10 10 11 9 9 11 13 14 15 15 14 14 15 18 17 18 20 19 17 17 19 19 17 19 19 18 18 19 18 16 17 19 19 20 19 19 20 19 20 20 18 19 20 19 19 19 19 19 19 19 19 20 20 17 17 19 19 19 19 19 18 17 17 18 17 17 17 18 19 19 19 20 20 20 20 20 20 19 17 16 15 14 12
12 12 12 12 11 10 11 11 10 11 13 13 14 15 14 14 14 17 17 17 19 20 19 18 18 18 17 17 18 18 17 17 19 17 16 17 18 18 19 18 19 20 19 20 20 19 18 18 18 19 19 19 19 19 18 19 20 18 16 17 18 17 17 18 18 18 17 16 17 18 17 18 18 19 20 19 19 21 21 20 20 20 19 18 16 15 13 11
12 12 12 11 11 10 10 10 10 13 14 13 13 14 14 14 16 16 15 17 20 19 17 17 17 17 17 17 17 17 18 17 16 16 16 17 17 18 18 18 18 19 19 19 19 18 16 15 16 18 19 18 18 16 15 17 18 17 17 19 19 18 17 17 16 17 18 17 17 18 18 17 18 19 20 20 21 21 22 22 22 21 21 19 16 14 12 11
12 12 12 11 11 10 10 10 11 13 12 12 13 13 15 15 15 16 15 17 20 18 16 16 16 16 16 17 17 17 17 16 15 16 17 17 17 18 18 18 19 19 18 18 18 16 17 17 17 17 16 17 18 17 15 15 16 17 19 19 19 18 18 17 16 16 17 17 18 17 16 16 17 18 19 21 20 20 21 22 23 24 23 21 17 13 12 10
11 12 11 11 11 10 10 11 12 12 11 12 12 13 15 15 14 15 17 19 20 18 17 17 16 16 16 17 17 17 17 16 16 17 17 16 17 17 18 18 19 18 18 18 17 17 17 17 17 16 15 17 19 19 16 16 16 18 19 19 18 18 17 17 16 16 16 17 16 15 15 16 16 18 20 20 21 21 20 20 21 22 22 21 18 13 11 9
11 11 11 11 11 11 11 11 13 12 11 11 12 13 15 14 14 16 17 19 20 17 17 17 16 16 16 17 17 16 17 17 15 16 16 16 16 16 17 18 18 19 18 17 16 17 18 16 16 17 17 17 19 19 18 17 16 17 18 18 18 17 16 17 16 15 16 17 15 14 15 16 17 19 20 20 21 22 20 18 18 18 18 19 17 13 10 9
11 11 11 11 11 11 11 11 12 12 10 11 11 12 14 14 16 17 17 19 19 17 16 17 15 15 16 17 16 16 17 16 15 16 16 16 16 16 16 17 17 18 18 16 16 17 18 18 17 17 18 18 18 19 19 18 16 16 17 18 18 17 18 18 17 17 17 17 15 14 16 18 19 20 19 18 18 18 17 17 15 14 14 15 14 11 10 8
10 11 11 11 10 11 10 10 12 11 10 11 11 11 13 14 17 17 17 18 18 16 16 16 15 15 15 16 16 16 17 16 15 15 15 15 16 16 16 17 16 17 18 18 17 16 17 19 17 17 17 17 18 18 18 18 17 16 16 17 18 18 19 19 17 17 17 16 15 15 16 18 18 19 17 17 18 16 16 17 16 15 13 12 12 11 9 8
10 10 11 10 10 10 10 10 11 11 10 11 11 11 12 15 17 18 18 19 18 16 15 15 15 15 15 15 15 16 17 16 15 15 15 15 16 16 16 17 17 17 18 19 17 16 17 18 16 15 16 16 17 18 18 18 18 16 15 17 17 16 18 19 16 15 15 16 16 16 17 17 18 19 19 19 19 18 18 18 17 16 13 12 13 11 9 8
10 10 10 10 10 10 10 10 11 11 11 11 11 11 13 15 17 18 19 19 18 17 16 16 16 15 15 15 15 15 16 16 15 15 15 15 16 16 16 17 17 17 19 20 19 18 19 18 15 14 16 15 14 16 17 17 17 16 16 17 16 16 17 18 17 16 15 16 16 16 17 18 19 19 19 18 19 20 20 19 17 16 14 13 12 10 8 8
10 10 10 11 11 11 10 10 11 10 11 11 11 12 13 14 16 17 18 18 17 17 17 17 17 16 15 15 15 15 16 16 15 15 16 15 16 18 16 17 17 17 18 20 20 19 19 19 16 13 15 15 14 16 17 15 15 16 16 17 17 17 17 16 16 16 16 16 16 16 16 17 18 19 20 20 21 22 22 19 17 17 17 15 13 10 8 8
9 10 11 12 12 11 10 10 10 10 11 10 10 11 12 13 15 16 17 17 17 18 18 18 18 17 16 16 15 14 15 16 15 14 16 16 16 18 17 18 18 17 17 19 19 19 19 20 17 13 13 15 15 16 16 15 15 15 15 16 16 17 17 16 16 16 16 17 17 17 17 17 18 19 21 21 22 23 23 21 20 20 17 16 14 11 9 8
10 10 11 13 12 11 10 10 10 11 11 10 10 11 12 13 13 14 15 16 16 17 18 18 18 17 16 15 16 15 15 16 14 15 16 16 17 17 17 18 18 16 17 18 19 19 18 19 18 14 12 14 15 15 15 16 15 15 15 16 15 16 16 16 16 16 16 17 17 17 18 19 19 18 20 22 22 22 23 22 23 22 18 16 14 12 10 8
10 10 11 13 13 11 10 10 11 11 10 9 10 11 12 13 13 13 13 13 13 15 17 18 18 18 17 15 15 16 15 15 14 15 16 16 17 18 17 18 18 16 16 17 18 19 18 18 17 14 13 14 15 15 15 16 16 16 16 16 16 16 16 16 16 15 16 17 17 17 18 20 20 18 20 22 22 23 23 22 23 24 21 17 14 12 10 8
10 10 11 12 11 10 10 10 11 12 10 9 10 11 12 13 13 13 12 12 12 14 16 16 17 18 17 16 16 16 15 15 14 14 16 16 17 18 18 18 18 17 17 17 17 18 18 17 17 15 13 14 15 13 13 14 16 16 16 16 16 16 16 17 17 16 16 16 16 16 16 19 20 18 19 21 21 22 21 19 21 23 21 17 14 12 10 9
10 11 11 11 10 10 10 11 12 11 10 10 11 11 12 13 13 13 12 12 12 14 15 16 17 17 17 17 16 16 16 16 15 15 16 16 16 18 18 17 17 17 17 17 17 18 18 18 17 16 14 14 15 14 13 14 15 15 15 16 16 16 17 18 17 16 17 17 16 16 16 18 19 16 16 17 17 17 17 17 19 21 18 16 15 13 10 9
10 11 11 10 10 10 11 11 12 10 9 9 10 11 11 12 12 13 13 12 13 14 14 15 16 17 17 17 17 16 16 17 16 16 16 16 16 17 17 17 17 17 18 18 17 18 18 18 17 16 15 15 15 14 14 14 15 15 15 15 16 16 17 16 16 15 16 17 17 17 17 19 18 16 15 16 16 17 18 16 17 18 18 17 15 12 10 9
9 10 11 10 10 10 11 12 12 10 9 9 9 9 11 11 12 13 13 13 13 13 14 15 16 17 17 17 17 16 16 18 18 16 16 16 16 17 17 16 17 17 18 18 18 18 18 17 17 17 17 16 16 15 15 14 14 15 15 15 15 16 16 16 16 16 16 17 17 17 18 19 18 17 17 18 17 18 20 18 17 16 17 16 14 13 11 9
8 9 10 10 10 10 11 12 12 11 10 9 9 9 10 11 12 13 13 13 13 13 14 15 15 15 16 17 17 16 16 17 18 16 15 16 16 16 17 16 16 17 18 18 18 18 17 17 17 18 18 18 18 18 16 15 15 15 15 15 15 15 15 16 16 16 16 16 16 17 18 18 18 18 19 19 19 19 21 21 19 17 16 15 14 12 10 9
8 9 11 11 11 11 11 11 11 11 11 10 10 10 10 10 11 12 12 13 14 14 14 15 14 14 15 16 16 16 16 16 16 16 15 16 16 16 16 15 16 17 18 17 17 17 17 17 17 18 18 19 20 18 16 16 16 16 15 15 15 15 14 15 15 16 17 16 16 18 18 17 18 18 19 19 18 19 20 21 20 19 18 16 13 11 10 9
8 9 11 11 10 11 11 11 11 11 11 11 11 11 11 10 11 11 12 12 13 14 14 14 14 14 15 16 15 15 15 15 16 16 16 15 15 15 15 15 15 16 17 17 16 17 18 17 17 17 17 19 20 18 16 16 17 16 16 15 15 14 14 14 15 16 17 17 17 18 18 18 18 19 19 19 19 19 20 20 20 19 17 15 13 12 12 10
8 8 9 9 10 10 11 12 12 10 10 11 11 11 11 11 11 11 12 12 12 13 14 13 14 14 15 15 15 14 15 15 15 16 16 15 15 16 16 16 15 14 15 16 15 15 17 18 17 17 17 18 19 17 16 16 16 16 15 15 15 15 14 14 15 15 16 17 18 18 17 18 18 19 19 19 19 19 19 19 18 17 17 16 15 14 13 11
8 8 8 9 9 9 10 11 11 10 10 10 11 11 12 11 11 11 12 12 12 12 13 13 13 14 15 14 14 14 15 15 16 16 16 16 15 15 16 17 15 14 14 15 15 13 15 17 16 16 16 16 17 16 15 16 16 15 15 15 15 15 15 14 14 15 15 15 16 17 16 17 18 18 19 19 18 18 18 18 17 17 17 16 15 15 13 11
8 8 8 7 8 9 9 9 10 10 10 10 10 11 11 11 12 12 12 13 13 13 13 13 13 14 14 14 14 14 15 15 16 16 16 16 16 16 16 17 16 15 14 14 14 13 14 14 14 15 15 16 17 16 15 15 15 15 15 15 15 14 14 14 14 15 15 15 15 15 15 16 17 18 19 18 18 19 19 18 18 17 16 15 15 15 14 12
7 7 7 7 7 8 8 9 9 10 11 11 11 11 11 12 12 12 11 12 13 13 13 14 14 14 14 14 14 14 15 15 15 15 15 16 17 17 17 16 16 15 14 13 13 12 13 13 14 14 15 15 16 15 15 14 14 13 15 16 16 15 14 14 14 15 15 15 15 15 16 17 18 18 18 17 17 18 18 18 18 17 15 14 14 14 14 13
Height
819 819 819 819 819 819 819 819 819 819 819 819 820 820 820 821 821 821 821 821 821 821 821 821 821 821 820 820 820 819 819 818 818 818 817 818 817 818 817 817 817 817 817 816 815 815 814 814 813 813 812 814 817 818 816 817 818 821 830 839 845 851 848 842 844 844 839 838 839 838 836 838 840 839 837 838 841 844 847 848 849 848 847 847 847 847 848 849
818 818 818 819 818 818 818 819 819 819 819 819 819 819 820 820 820 820 820 820 821 821 821 821 821 821 820 820 820 819 819 818 818 818 817 817 817 817 818 817 817 817 817 816 816 815 815 816 814 814 815 817 819 819 819 819 819 826 836 841 846 848 842 838 839 838 837 836 836 837 837 836 837 838 837 840 845 845 845 849 851 849 848 848 847 847 848 849
818 818 818 818 818 818 818 818 818 818 818 818 819 819 819 819 819 819 819 820 820 820 820 820 821 820 820 820 819 819 819 818 819 818 817 817 817 817 818 818 817 817 817 817 816 816 816 817 816 816 818 821 822 821 822 821 823 828 835 841 844 841 838 837 836 835 834 834 835 836 837 836 836 836 836 840 845 845 843 845 848 848 848 848 848 848 848 848
818 817 817 818 818 817 817 817 818 818 818 818 818 818 819 819 819 819 819 819 819 820 820 820 820 820 820 819 819 819 817 820 821 818 817 817 817 818 818 818 818 818 817 817 817 816 816 817 816 817 820 824 824 823 825 825 826 829 833 838 839 837 837 836 834 834 833 834 835 836 837 837 836 836 837 840 845 847 842 839 839 840 844 846 847 848 847 848
818 817 817 817 817 817 817 817 817 817 817 817 817 818 818 818 819 819 819 819 819 820 819 820 820 819 819 818 819 818 819 826 823 817 818 818 817 818 818 818 818 818 818 817 817 816 816 816 817 819 822 825 826 826 828 827 826 831 835 835 834 836 836 834 834 833 833 835 835 836 838 836 835 836 836 838 841 841 837 834 834 834 839 843 844 846 847 848
818 818 818 817 817 817 816 816 817 817 817 817 817 818 818 818 818 819 819 819 819 819 819 820 820 819 819 818 819 817 821 828 821 816 818 817 818 818 818 819 818 818 818 817 817 816 817 817 819 823 826 828 830 830 830 829 827 833 837 836 835 835 833 833 834 833 833 834 836 837 836 835 837 837 836 836 836 835 833 833 833 835 838 841 843 845 846 848
817 818 818 817 817 816 816 816 816 816 816 817 817 817 818 818 819 819 819 819 819 819 820 820 819 819 818 818 818 817 821 822 817 817 818 817 819 818 818 819 818 818 818 817 817 817 819 820 822 826 828 830 832 831 830 829 828 832 836 835 834 833 832 832 833 833 833 833 834 836 835 836 837 837 837 835 833 834 835 834 834 836 839 841 843 845 846 847
817 818 817 817 817 816 816 816 816 816 816 816 817 817 818 818 819 819 819 819 819 819 819 819 819 818 818 818 818 820 821 818 816 817 818 818 819 818 819 819 818 819 818 818 818 818 820 822 825 827 830 832 831 831 831 831 831 833 836 835 834 833 832 833 833 833 834 834 836 836 836 837 837 838 837 833 833 837 837 836 836 838 840 843 844 845 846 847
817 817 817 817 817 816 816 815 816 816 816 816 817 817 817 818 818 819 819 819 819 819 819 819 819 818 818 818 819 823 821 816 817 817 818 819 819 819 819 819 819 819 818 819 818 818 820 824 826 825 828 831 830 831 831 832 835 834 834 834 833 833 833 834 834 833 834 835 836 837 838 837 837 840 836 831 834 838 838 838 839 840 841 843 844 845 845 846
817 817 817 816 816 816 816 815 815 815 816 816 816 817 817 817 818 818 819 819 819 819 819 819 818 818 818 818 821 825 819 816 817 817 818 818 819 819 819 819 819 819 819 819 819 819 821 823 824 822 825 829 830 832 833 833 834 833 833 833 833 834 834 834 834 834 835 835 836 838 839 838 838 841 835 832 837 839 839 841 841 841 842 843 844 845 845 845
817 816 816 816 816 816 815 815 815 815 815 815 816 816 817 817 818 818 819 819 819 819 819 819 818 818 818 819 823 824 817 816 817 817 818 818 819 819 819 820 819 819 819 819 820 820 821 821 821 822 826 828 830 834 833 832 833 833 833 833 834 835 833 833 833 835 836 836 835 836 838 839 840 840 833 832 838 839 838 841 842 842 843 844 844 844 845 845
816 816 816 815 815 815 815 815 814 815 815 815 815 816 816 817 817 818 819 819 819 819 819 819 819 819 819 821 822 820 816 817 817 817 818 818 819 819 819 820 819 819 819 819 821 820 821 821 820 824 828 829 832 836 834 832 833 833 834 835 836 834 833 832 833 834 835 836 834 836 842 841 839 835 831 834 839 840 840 842 843 843 843 844 844 845 844 844
816 816 815 815 814 814 814 814 814 814 814 814 815 815 816 817 817 818 818 819 819 819 819 819 819 819 820 821 819 817 816 817 817 817 818 818 819 819 819 820 819 820 820 820 821 821 821 821 821 824 827 828 833 835 832 832 833 834 837 839 840 839 835 833 834 834 835 837 834 838 847 840 832 830 832 838 840 840 842 842 843 843 844 844 844 844 844 844
815 815 815 814 814 814 814 814 814 814 814 814 814 815 816 816 817 817 818 819 819 819 819 819 820 819 821 821 817 816 817 816 817 817 818 818 819 819 820 820 820 820 820 821 821 821 821 821 822 824 826 829 831 831 833 836 836 838 841 844 849 849 839 832 835 836 835 838 834 838 849 840 827 827 833 839 839 838 839 840 843 843 843 844 844 844 843 843
814 814 814 814 814 813 813 813 813 813 813 813 813 814 815 816 816 817 818 818 818 819 819 819 819 820 822 820 816 816 817 816 817 817 818 819 819 819 820 820 820 820 821 821 821 822 822 822 823 827 830 830 831 834 839 841 840 843 845 849 855 853 842 834 835 835 834 838 836 838 848 841 828 827 832 839 839 837 837 838 841 841 842 843 842 843 842 842
813 813 813 814 814 813 813 813 813 813 813 813 813 814 814 815 816 816 817 818 818 819 819 820 820 821 824 821 817 817 817 816 817 817 818 818 819 819 820 820 820 821 821 822 822 822 822 823 827 832 832 832 835 838 842 846 847 849 849 850 854 853 849 841 835 835 833 835 837 839 842 838 829 829 835 839 839 839 837 837 839 838 839 840 840 841 841 842
812 812 813 813 813 813 813 813 813 813 813 812 813 813 814 815 815 816 817 817 818 819 819 820 819 821 822 820 818 817 815 815 816 817 818 818 819 819 819 820 821 821 821 822 822 823 824 827 832 834 834 838 840 840 847 853 850 850 854 853 852 852 851 845 836 835 834 835 838 839 841 835 827 829 835 837 838 839 837 834 834 835 836 837 839 840 840 840
811 811 812 812 813 813 813 813 813 813 812 812 812 813 814 815 815 816 817 817 818 819 821 820 821 825 823 817 816 814 813 814 815 816 817 818 819 819 820 820 821 822 823 825 825 826 829 832 836 837 840 843 843 842 849 851 844 845 851 851 851 851 851 848 840 834 835 837 838 840 842 836 828 828 832 835 837 837 834 831 832 832 834 835 836 837 837 837
809 810 811 811 812 813 813 813 813 813 812 812 812 813 814 815 816 816 816 817 818 819 820 817 818 822 819 812 812 812 812 814 815 816 817 818 819 820 820 820 822 823 827 831 831 830 832 836 840 843 844 843 842 840 838 838 836 839 843 844 845 846 847 845 839 833 834 838 840 840 839 833 828 827 826 830 835 835 832 830 831 831 831 833 834 833 833 833
808 809 809 810 811 812 812 813 813 813 812 812 812 813 814 815 817 817 817 817 814 812 812 811 811 813 812 810 811 812 813 814 815 816 817 818 818 820 821 822 824 827 830 833 834 834 834 840 844 841 837 836 838 835 831 835 838 839 842 844 846 847 845 840 835 832 833 838 838 836 837 832 828 826 823 826 833 833 831 830 828 827 828 829 829 828 828 829
806 808 808 809 810 811 812 812 813 813 812 812 812 812 813 814 815 817 817 814 810 808 808 808 809 809 809 809 810 810 812 815 816 815 817 817 817 821 823 824 828 832 834 835 836 836 837 844 842 833 831 832 834 835 836 840 841 841 844 846 848 850 845 837 835 834 834 838 836 833 837 833 828 826 822 825 829 827 824 824 822 821 822 823 823 823 824 826
805 806 807 808 809 810 811 811 812 812 812 813 812 813 814 813 814 814 815 814 808 805 807 809 810 810 808 808 809 809 810 815 817 816 816 817 818 821 823 826 830 833 836 836 838 841 845 846 835 829 834 835 835 839 840 841 841 843 847 849 849 850 846 839 837 837 836 838 835 833 836 832 826 825 821 821 822 818 815 815 812 813 816 817 817 818 821 824
803 804 806 807 808 809 810 811 812 812 812 813 813 813 813 813 813 813 815 816 810 804 804 807 808 808 808 808 808 808 809 811 814 815 814 816 818 820 822 826 830 833 837 836 836 844 848 840 828 829 837 836 836 840 841 842 843 844 848 851 849 848 846 840 838 839 837 838 837 835 838 832 825 824 818 814 815 812 810 809 809 809 809 808 809 811 814 817
801 802 804 805 807 808 809 811 811 811 812 812 813 812 811 812 813 813 814 815 812 803 800 800 801 803 804 804 803 806 808 807 808 810 811 813 817 821 821 823 830 835 835 832 832 837 836 828 824 830 835 835 836 839 841 843 844 844 845 847 845 843 842 839 840 840 837 839 838 838 839 829 821 822 815 809 812 811 807 807 807 805 803 803 805 806 807 810
798 800 802 803 806 807 809 810 809 810 811 811 811 810 812 812 812 814 814 816 814 805 799 797 798 797 796 799 801 803 806 805 803 804 806 808 812 817 820 821 826 832 833 833 836 837 832 826 826 829 834 837 837 838 840 842 845 843 840 838 836 835 835 838 842 843 844 844 841 842 844 829 818 821 816 810 812 807 802 803 801 798 798 801 802 801 804 808
796 798 799 802 804 805 809 808 807 809 810 809 808 808 812 811 813 814 814 823 819 804 800 798 795 792 790 796 800 802 809 806 800 801 803 806 806 809 817 821 821 825 829 833 835 834 829 824 824 826 830 835 839 841 837 838 845 845 837 832 832 833 835 838 842 845 849 849 845 846 848 837 822 816 811 808 808 801 797 798 795 794 795 796 797 797 801 806
793 795 796 800 802 803 805 804 805 808 808 806 804 808 811 810 815 813 815 833 821 793 792 796 792 787 786 792 794 800 810 804 799 803 802 805 805 804 813 820 821 822 824 828 832 829 824 823 827 827 827 833 840 840 834 834 842 841 835 832 832 833 836 838 841 846 848 849 848 846 849 848 831 815 808 806 807 804 800 797 793 790 791 791 793 794 797 801
789 791 793 796 798 799 800 801 802 804 805 803 802 807 809 810 815 811 821 839 812 779 785 791 787 785 785 790 790 795 802 796 799 805 802 804 806 805 811 816 817 817 816 821 827 826 820 821 825 826 829 834 833 830 828 831 835 835 836 837 835 835 839 840 843 848 853 854 851 846 850 852 833 814 811 811 809 805 798 794 789 785 785 787 789 791 793 797
785 787 789 792 796 798 799 799 799 800 801 801 802 805 807 811 813 811 829 831 794 773 782 784 785 787 789 794 793 794 798 797 800 803 803 805 805 806 811 813 814 815 814 816 820 822 821 821 821 821 827 828 825 827 828 827 829 833 838 839 839 842 844 845 847 848 854 857 852 846 847 849 829 807 808 812 809 801 791 788 785 781 782 783 786 789 792 796
783 783 785 789 792 793 796 797 795 797 800 801 802 804 806 811 812 822 838 819 782 778 785 783 786 789 791 797 799 798 797 801 803 803 806 807 806 807 809 810 812 816 818 818 819 823 823 824 823 820 822 823 823 831 835 831 830 833 836 835 839 845 846 850 853 851 856 855 845 838 839 846 836 812 804 802 796 791 785 782 780 777 777 779 783 787 790 794
780 781 783 785 785 786 790 791 790 794 798 800 803 804 806 812 817 826 827 799 778 783 786 786 789 789 790 793 798 800 800 804 805 804 807 809 810 810 811 812 815 820 825 823 823 826 824 823 823 820 822 823 823 830 836 836 835 832 832 835 842 848 849 855 858 858 862 851 837 837 841 848 841 815 799 793 787 787 784 778 775 772 772 775 781 786 789 792
777 778 780 782 783 784 783 781 784 792 797 799 803 802 804 817 824 819 804 786 781 781 779 784 788 788 790 789 791 796 798 802 804 803 805 809 812 810 809 810 812 821 829 826 825 828 824 823 824 822 823 821 819 828 836 838 837 834 835 841 850 857 859 860 862 865 864 849 840 846 846 842 830 806 795 792 784 781 781 779 776 773 773 774 779 785 788 791
775 776 778 779 780 780 778 779 784 790 794 797 802 801 802 814 815 802 791 780 775 774 772 777 781 785 789 790 793 794 795 799 803 803 803 806 811 810 806 805 806 810 817 823 829 829 826 826 826 823 821 817 814 823 832 835 837 836 835 840 849 862 868 865 864 865 857 844 843 850 845 834 818 797 789 786 777 774 777 781 781 779 777 775 778 784 787 790
773 774 774 774 776 776 778 781 784 787 791 795 802 804 804 805 794 785 782 772 766 771 773 775 781 787 788 789 791 791 794 801 802 802 804 807 812 812 809 808 807 805 810 822 828 827 826 822 819 817 814 812 810 812 816 824 834 834 831 834 841 849 853 852 852 850 844 840 844 848 839 821 804 789 784 784 781 781 781 782 783 783 782 780 781 785 787 789
771 771 772 772 773 774 776 779 781 786 790 793 802 806 802 794 781 774 772 765 765 773 776 777 782 790 792 790 791 787 789 797 801 803 805 806 807 807 805 803 803 804 808 816 820 823 825 816 809 810 808 807 809 809 811 820 833 837 835 836 836 834 832 837 845 845 845 846 845 842 828 808 795 786 783 784 782 783 783 780 780 780 782 784 782 783 786 787
769 769 769 768 769 770 774 777 778 783 785 789 800 803 793 778 765 761 757 755 761 770 778 783 784 790 795 793 793 790 787 791 799 804 805 805 803 800 798 794 794 797 795 801 811 818 821 816 812 814 811 810 811 810 811 815 824 836 838 833 831 829 826 833 846 850 852 849 837 827 816 803 796 784 777 779 778 779 780 776 775 777 781 783 781 782 785 786
767 766 766 764 764 766 770 774 776 779 781 785 789 787 780 766 755 753 750 750 757 763 771 779 780 784 791 792 792 791 788 790 797 800 802 805 799 791 793 790 787 789 784 786 798 802 805 810 815 815 812 815 816 812 813 814 818 830 834 827 827 832 830 834 844 849 852 849 832 821 813 804 801 789 777 778 778 774 772 772 775 778 779 779 778 781 784 784
766 765 761 758 759 763 767 771 773 775 778 783 783 776 772 765 753 750 749 749 755 759 763 768 770 774 781 786 787 788 787 788 797 799 798 802 791 776 783 786 782 783 780 781 790 792 795 803 815 820 816 817 817 813 817 820 819 822 823 820 824 832 834 839 844 843 846 845 829 819 815 806 799 787 775 774 773 765 763 769 775 773 772 773 773 779 783 784
765 764 757 750 754 760 764 768 770 771 774 780 782 775 766 760 751 748 749 750 752 755 757 758 761 769 774 776 780 785 785 784 792 796 791 792 785 769 770 775 775 779 780 781 787 790 792 797 810 821 820 818 817 816 821 823 822 823 823 822 825 826 829 834 836 834 835 835 824 815 808 795 785 778 769 766 764 758 758 764 766 765 766 768 769 775 780 782
762 761 751 744 750 755 760 766 766 765 767 770 771 764 757 754 751 751 753 754 753 752 753 752 755 763 769 771 773 777 779 780 785 788 782 780 777 769 766 767 771 778 780 781 784 786 791 795 805 820 825 820 815 812 812 812 816 821 823 826 827 826 829 830 829 829 828 827 824 818 802 779 770 768 760 756 757 755 756 759 757 758 761 764 767 771 775 778
760 757 746 741 746 750 757 763 759 756 763 767 765 760 756 752 751 752 755 758 758 753 750 751 752 755 761 767 769 768 773 778 780 781 777 773 769 764 761 760 765 774 782 788 787 784 789 794 802 817 823 815 808 806 806 804 804 808 811 814 815 818 825 829 829 827 825 821 816 815 800 769 757 761 755 752 754 752 753 756 754 753 754 758 764 767 771 774
756 752 742 739 743 747 753 757 751 751 759 761 757 754 753 749 748 751 754 760 761 755 751 752 751 751 753 758 761 763 768 774 777 778 772 766 762 757 756 756 759 765 772 781 781 774 781 791 799 810 815 810 806 808 810 807 802 805 807 806 809 812 814 818 820 819 821 817 810 817 808 770 750 756 754 751 753 752 754 758 755 751 751 756 761 765 770 772
751 746 740 738 740 742 748 749 746 749 753 752 749 750 751 748 747 750 752 758 759 756 755 752 749 749 749 750 755 760 763 766 770 770 764 762 759 753 753 754 757 761 764 770 775 773 779 787 794 805 811 808 806 806 808 807 805 807 807 804 806 806 803 804 807 809 812 807 805 818 809 770 753 760 760 759 761 760 761 761 757 753 754 757 760 763 768 771
748 742 739 740 739 739 741 739 740 748 753 752 754 755 752 748 747 747 748 751 751 751 752 748 744 745 744 745 749 753 756 758 761 760 756 758 756 749 750 752 754 758 758 760 765 769 778 785 790 802 810 810 811 810 808 808 806 804 802 801 800 798 801 805 807 812 808 792 794 807 793 764 757 762 761 762 763 759 759 760 760 756 753 755 759 763 767 769
748 742 737 738 737 735 733 729 733 743 748 752 756 756 752 748 745 742 743 745 746 747 749 744 740 741 741 743 746 748 749 748 749 752 754 755 753 748 748 751 750 751 750 750 751 756 769 777 781 791 799 799 798 796 795 798 803 801 797 798 799 798 801 802 804 811 802 786 789 794 776 759 759 761 759 759 759 757 754 755 758 757 755 755 759 761 763 766
748 741 735 735 734 731 727 724 728 736 740 746 751 752 751 748 742 739 740 742 743 744 743 739 740 743 743 743 745 747 748 743 742 748 752 752 750 747 746 748 749 747 747 749 750 754 764 769 768 771 774 770 766 768 774 782 792 795 791 793 796 796 797 798 800 799 791 789 790 777 764 762 759 758 758 755 756 756 750 748 752 754 755 755 756 758 761 764
746 738 730 729 730 727 725 723 725 729 731 736 740 740 744 745 741 740 741 739 737 738 738 737 741 745 744 744 747 746 745 745 745 747 749 747 746 746 746 747 747 746 746 750 751 754 762 767 765 761 759 752 749 758 769 773 777 782 785 789 790 791 795 798 794 783 779 792 784 759 762 769 754 751 756 751 754 755 748 746 748 748 750 751 754 759 760 762
741 733 725 725 725 721 719 718 721 724 725 727 729 728 733 739 739 739 739 736 734 734 737 738 738 739 736 736 743 745 745 747 746 743 744 747 748 748 749 749 749 747 748 751 752 753 757 761 761 759 758 749 744 755 766 767 769 772 777 781 782 786 791 788 783 776 777 785 769 749 761 764 744 743 749 746 749 748 741 743 744 744 748 750 753 756 756 759
736 732 726 726 724 719 713 709 713 720 722 723 724 722 724 730 732 732 731 734 736 734 734 735 732 729 728 730 737 742 742 744 743 739 740 744 747 748 748 749 750 750 750 750 753 755 753 752 753 756 759 752 746 755 762 764 769 772 773 775 774 775 776 774 774 775 775 774 758 751 762 756 738 738 741 739 743 741 738 742 743 743 746 747 749 750 750 755
732 730 727 726 725 721 717 711 709 715 720 721 720 717 716 720 723 725 724 727 732 731 730 729 724 722 726 731 735 735 731 731 732 732 735 739 743 744 742 740 743 749 751 749 753 758 756 753 754 757 761 756 749 756 763 764 768 770 770 771 768 764 767 771 773 774 776 773 761 759 765 752 735 735 737 737 740 740 739 741 741 741 742 743 746 746 747 750
728 727 727 729 727 721 718 715 711 712 714 716 716 714 714 714 714 719 719 717 718 721 722 721 720 722 726 729 732 729 723 723 725 726 729 731 733 734 733 731 733 741 748 749 752 756 758 761 761 760 763 756 747 756 766 764 767 771 766 759 757 759 766 769 768 765 768 768 765 769 767 745 731 735 736 735 739 738 737 737 736 738 739 741 742 741 742 745
727 726 727 730 727 720 718 716 713 709 705 705 709 709 709 708 708 714 719 716 714 714 715 713 715 721 725 725 723 718 714 718 722 725 728 729 727 726 727 728 729 733 742 749 754 755 756 759 760 761 763 756 750 756 763 767 775 774 754 738 741 754 762 763 760 756 757 759 760 761 749 729 727 736 735 735 737 735 732 732 731 733 736 739 739 737 737 737
Wind_Speed
1 1 1 1 1 1 2 2 2 3 3 2 2 2 3 3 4 4 4 4 4 4 4 5 5 5 5 6 7 7 7 5 1 1 1 2 1 0 0 2 2 2 3 4 6 5 5 7 10 12 7 3 3 2 3 2 3 5 4 4 3 2 2 4 6 6 4 5 6 5 3 7 4 1 1 3 7 4 4 5 3 5 5 3 5 9 12 16
2 2 2 1 1 1 1 2 2 3 3 2 2 2 3 3 3 4 4 4 4 4 5 5 5 5 5 6 7 7 8 4 1 2 3 2 3 3 2 2 2 2 4 4 6 8 6 5 10 10 6 2 3 3 3 3 3 4 3 4 2 5 2 3 6 5 4 6 6 4 4 6 6 4 3 1 1 2 4 3 4 5 4 3 5 7 9 15
2 2 2 1 1 1 1 1 2 2 3 3 2 2 3 3 3 3 4 4 4 4 4 5 4 5 5 6 7 8 7 2 1 2 2 1 4 5 3 3 2 2 4 4 5 7 4 4 7 5 4 3 2 3 4 4 3 2 4 4 3 6 3 2 4 4 4 6 8 3 3 4 4 3 2 3 4 3 4 3 1 1 4 4 4 7 11 14
2 2 2 1 0 1 1 1 2 2 2 2 2 1 1 1 2 3 3 4 4 4 4 4 5 5 6 7 6 7 6 3 0 2 2 3 5 6 5 4 3 3 3 5 5 5 5 5 4 3 4 2 3 4 3 3 1 2 3 4 5 4 3 2 3 3 3 6 7 4 4 4 3 2 3 6 6 3 6 7 7 9 10 9 6 8 12 14
2 2 1 1 1 1 1 0 0 1 1 2 1 2 1 1 2 2 2 3 3 3 4 4 5 5 6 7 6 7 5 4 1 2 3 5 6 6 6 4 3 3 4 6 5 4 5 4 5 5 4 2 4 5 2 3 2 3 2 3 5 4 3 3 3 1 4 6 5 5 5 4 2 0 4 8 6 5 6 8 9 9 12 12 10 10 11 13
3 2 1 1 1 1 1 1 1 0 1 1 1 1 1 1 1 1 2 2 2 3 4 4 5 5 6 6 6 5 2 1 3 4 5 6 8 7 6 4 3 3 4 5 6 6 4 5 6 4 3 3 2 3 0 4 3 3 2 1 3 4 4 3 2 1 4 7 5 5 3 1 2 2 3 7 7 6 4 5 7 8 13 15 13 12 10 10
3 2 1 1 1 1 1 1 1 2 2 1 1 1 1 1 0 1 1 1 2 3 4 4 5 5 5 5 4 3 3 1 3 6 6 8 8 7 6 3 2 3 3 5 8 6 4 6 5 3 4 4 1 2 1 4 5 5 1 2 1 2 5 4 4 3 5 7 4 4 2 2 5 3 1 4 6 3 2 2 9 13 16 16 12 10 9 10
4 3 2 2 2 2 1 1 1 2 2 2 2 1 1 0 1 1 1 1 2 3 3 4 4 4 5 4 2 3 2 2 6 8 7 8 7 6 4 1 1 1 4 7 7 2 3 6 3 2 3 2 2 1 1 4 6 4 2 2 1 1 2 4 4 5 5 5 2 4 3 5 6 3 1 5 5 2 2 6 10 13 13 12 9 8 10 10
5 5 3 3 3 2 2 2 1 2 2 2 3 2 1 1 1 2 2 2 2 2 3 3 3 4 4 3 4 2 2 3 8 9 8 8 7 5 3 1 0 1 5 7 6 4 3 2 1 2 3 2 3 2 1 3 1 1 3 1 1 1 1 2 3 4 5 3 3 4 3 6 3 1 4 5 6 4 5 7 7 10 9 8 7 8 10 10
6 5 4 4 3 2 2 2 2 2 2 3 3 2 1 1 2 2 1 2 2 2 2 2 3 2 3 3 4 1 3 3 9 10 9 8 7 5 2 1 0 1 4 5 7 7 3 2 2 2 5 2 2 1 2 3 2 2 3 2 1 2 3 3 4 4 2 1 5 5 5 5 4 1 4 3 5 6 7 7 5 8 8 7 6 7 11 12
8 6 5 4 3 2 2 2 2 2 3 3 3 3 2 1 2 2 1 1 2 2 2 2 2 2 2 3 3 3 2 5 9 10 9 8 6 4 3 2 1 2 4 5 6 6 4 1 1 2 2 1 2 2 2 1 2 1 2 1 3 5 5 3 4 4 2 1 5 6 3 4 3 1 6 4 6 6 8 8 5 7 6 7 7 6 9 12
9 7 6 5 4 4 3 2 3 2 3 4 4 4 3 2 1 1 1 1 1 1 1 2 2 1 2 3 2 4 4 6 9 10 9 7 6 5 3 2 1 2 2 4 4 5 5 3 3 4 0 2 2 2 0 1 2 1 3 2 6 7 5 4 3 4 5 2 5 6 2 5 3 6 5 2 7 5 7 8 6 6 6 6 6 5 7 11
10 8 7 6 6 6 4 3 3 4 4 4 4 4 2 2 1 0 1 1 1 1 1 1 1 1 3 0 3 4 5 7 9 10 9 7 6 5 4 3 1 1 2 4 4 4 5 4 5 5 2 4 2 1 2 2 2 0 3 2 4 7 5 5 1 4 6 3 4 5 1 6 8 9 4 3 8 7 6 7 6 6 5 6 6 5 6 10
11 10 8 8 8 8 6 5 4 4 5 5 5 3 2 1 1 1 1 2 2 1 1 1 1 2 3 2 4 3 7 7 8 9 9 8 7 6 5 3 2 2 3 5 4 4 4 3 5 5 2 3 2 1 3 5 3 1 2 2 2 2 4 7 2 6 6 2 3 6 2 6 9 10 5 6 8 9 8 8 7 6 6 6 6 6 6 8
11 10 9 9 9 9 8 7 6 5 4 6 5 3 2 3 2 1 2 2 2 1 1 1 1 2 2 3 4 3 7 7 8 10 9 9 8 6 5 4 4 4 4 3 4 4 4 3 4 4 1 2 3 4 4 4 3 2 1 3 3 1 5 8 2 7 6 1 2 5 2 6 8 9 4 7 7 8 9 8 8 8 8 7 6 7 6 7
11 10 10 9 8 8 9 8 9 6 4 5 4 2 3 3 2 2 3 2 2 2 2 1 1 3 2 2 1 3 6 6 8 11 10 9 7 6 7 7 5 5 5 4 4 3 5 5 3 2 1 2 4 5 3 4 4 3 1 2 2 2 3 6 3 3 4 2 1 2 3 4 5 5 2 6 6 7 7 8 9 9 9 9 7 7 6 6
11 10 10 10 9 9 8 8 9 6 4 4 2 3 3 3 2 3 3 3 4 3 3 2 1 2 0 1 1 3 5 8 10 12 11 8 7 8 9 6 4 5 5 5 4 3 5 5 1 0 2 3 3 4 3 2 3 4 1 2 3 3 2 3 4 3 2 3 3 3 4 7 6 4 3 5 6 7 8 9 10 10 9 8 7 7 7 7
12 11 10 9 9 8 8 9 8 6 4 3 2 3 4 4 3 3 4 5 6 5 3 1 2 1 3 3 3 3 5 9 11 12 11 8 9 10 7 4 4 6 5 4 3 3 3 4 2 1 3 3 2 5 3 4 3 3 3 2 3 3 2 4 4 2 4 2 4 4 5 11 12 8 6 7 7 8 11 11 9 9 9 8 7 8 8 9
14 12 10 10 9 8 9 9 8 5 4 2 3 6 7 5 3 3 4 5 5 3 1 3 3 3 4 4 3 3 6 10 10 11 11 10 11 8 5 5 6 6 4 2 2 1 2 3 4 2 1 2 4 6 7 8 6 6 6 4 4 3 3 5 5 5 6 4 5 7 8 11 12 10 8 7 7 9 11 9 7 7 8 7 8 8 9 10
16 13 11 10 9 9 8 9 7 5 4 1 5 7 5 3 3 1 1 2 4 4 3 5 6 4 1 1 4 8 9 7 5 8 11 10 11 8 4 4 6 5 3 4 2 0 4 3 2 4 7 7 9 10 7 5 6 5 4 3 4 4 4 5 4 6 4 4 6 9 9 11 11 10 10 6 6 8 11 10 10 9 8 9 10 11 12 11
17 15 13 10 9 8 8 9 7 4 3 3 6 5 3 3 3 1 2 4 10 9 5 5 4 2 1 3 11 13 8 3 1 5 12 10 10 9 1 2 5 2 1 4 3 2 4 4 7 9 9 8 8 9 6 2 3 2 3 2 3 4 5 6 4 5 1 3 6 6 7 12 12 11 11 4 7 9 13 13 14 13 11 10 11 13 12 7
19 17 15 12 9 8 7 8 5 3 4 5 5 3 2 2 3 1 1 2 10 13 11 6 2 5 4 4 13 11 4 2 0 4 11 9 7 7 2 3 5 3 2 3 3 2 2 4 11 11 5 4 3 4 5 4 4 2 1 2 4 3 4 6 4 4 0 3 5 5 5 10 11 10 10 8 8 10 12 14 15 13 12 11 12 13 10 7
20 19 16 13 10 8 6 6 4 3 5 6 5 4 4 4 5 4 1 1 6 7 7 7 6 6 4 2 10 11 2 4 5 5 11 9 4 5 5 5 5 4 4 5 5 4 3 6 12 9 6 5 3 3 6 3 4 4 3 3 4 4 2 3 4 3 1 2 3 5 6 8 9 8 10 12 9 8 10 13 12 11 12 14 14 12 12 13
21 20 19 15 12 8 6 5 5 5 7 9 10 9 8 7 6 6 2 1 4 4 4 9 8 6 8 5 11 13 3 4 5 6 14 12 5 3 5 6 5 5 5 9 9 6 6 7 4 6 8 7 5 4 6 5 3 5 5 6 5 4 5 6 4 4 3 4 2 3 6 7 7 8 11 9 4 7 10 10 10 12 12 11 10 11 13 14
23 22 21 17 13 10 7 5 6 9 8 8 13 13 10 7 5 6 3 1 3 5 3 6 5 6 12 9 12 12 2 3 4 9 18 16 9 5 3 3 4 5 8 8 8 5 8 6 3 7 5 7 6 5 5 7 4 5 5 9 9 7 7 5 2 4 4 5 3 2 4 7 4 5 9 6 4 7 7 7 11 13 11 9 10 11 11 9
26 24 22 20 16 13 9 4 9 12 8 9 14 13 10 5 4 3 3 3 4 4 1 4 4 8 13 9 10 7 2 5 4 8 19 17 11 5 3 2 2 5 7 6 4 3 5 6 4 6 5 7 6 5 6 7 6 4 6 8 8 7 5 4 1 2 0 4 3 2 2 7 6 4 8 6 7 11 9 8 12 12 9 9 10 10 9 9
29 27 25 23 20 19 12 4 10 12 5 9 14 14 13 9 4 2 2 4 5 3 4 3 2 8 11 11 13 8 2 5 2 5 12 11 7 3 3 5 2 3 4 4 2 3 5 7 6 6 6 6 6 4 6 8 7 4 5 6 7 6 5 4 4 4 3 3 4 3 3 5 8 6 7 6 8 13 13 12 13 12 10 10 10 9 10 11
33 30 28 26 25 25 16 8 14 15 6 3 11 18 15 10 6 2 3 0 4 3 4 2 1 5 5 9 14 7 2 3 5 3 3 5 5 1 2 8 6 7 6 6 5 4 4 7 8 9 6 5 6 5 7 10 6 6 4 6 6 6 5 4 5 3 1 2 4 3 2 3 8 6 4 2 6 11 13 13 14 13 11 10 10 9 10 11
37 33 33 31 27 27 20 12 14 16 10 7 10 20 18 11 6 4 4 3 3 1 2 1 3 2 3 6 8 3 2 2 2 3 1 3 3 2 3 7 6 8 5 4 5 3 2 6 8 8 6 7 5 2 6 10 5 4 6 7 6 5 5 5 4 3 3 2 5 5 4 4 7 5 2 1 3 9 11 10 11 11 10 8 8 9 9 8
39 38 37 34 31 31 25 17 18 18 15 8 9 19 19 8 4 4 2 4 1 1 1 2 3 3 7 10 4 0 3 2 1 2 3 1 1 4 1 3 5 5 2 3 1 2 2 1 2 3 4 5 4 3 2 5 5 5 7 6 6 6 5 4 3 4 2 4 6 9 9 6 6 4 4 3 5 7 8 7 8 8 8 7 7 7 8 8
36 39 38 37 37 36 25 18 26 23 16 11 12 19 14 4 3 5 6 2 1 2 2 1 2 5 12 15 7 3 3 2 1 5 3 1 2 3 1 1 4 3 1 4 3 4 5 2 1 1 2 4 6 5 3 3 3 6 5 5 4 4 4 4 4 4 0 6 6 6 6 7 7 6 3 6 6 5 7 7 8 8 7 6 6 6 8 8
28 37 40 40 38 37 27 22 31 27 16 16 17 13 7 2 1 5 4 1 0 4 5 4 4 7 12 12 9 8 5 2 3 7 6 4 5 5 5 6 5 3 3 6 3 3 3 3 3 2 1 4 6 4 3 5 4 5 5 6 3 2 3 3 3 0 3 7 5 1 2 4 9 8 7 10 11 10 9 8 7 8 7 7 6 7 7 7
21 33 41 42 39 39 34 24 25 27 21 20 15 5 3 5 7 8 8 4 3 3 4 4 5 9 12 9 6 6 4 2 5 6 4 5 5 7 5 5 5 3 3 5 3 1 3 5 2 0 2 3 8 7 3 1 2 5 6 6 5 2 0 3 3 2 4 6 4 1 2 4 5 5 10 16 16 13 8 6 7 8 9 9 6 7 7 7
15 27 40 45 42 41 37 26 24 30 27 18 8 2 5 7 8 11 13 10 3 1 2 4 6 8 10 6 4 6 4 3 6 5 3 5 5 6 5 5 6 2 3 4 3 5 5 6 4 7 3 5 10 8 5 6 5 4 4 5 5 5 4 4 4 4 4 4 4 2 2 4 2 3 8 11 10 9 6 7 6 6 7 6 2 5 7 8
12 20 35 42 40 39 36 29 29 34 27 14 6 5 9 8 8 10 12 9 4 2 2 4 8 8 6 2 2 7 5 2 5 5 4 6 6 7 7 8 10 6 4 4 2 3 4 6 6 3 1 8 10 4 5 7 3 2 3 5 3 5 5 3 3 5 3 2 4 2 4 5 4 5 7 7 7 7 6 8 6 6 5 1 2 6 7 8
13 15 26 34 36 37 35 29 33 38 25 11 7 8 9 9 9 9 7 6 6 5 6 4 5 5 6 2 2 6 3 2 5 5 3 4 3 6 8 7 10 12 9 6 2 3 3 4 4 2 3 4 6 3 4 4 3 2 2 4 4 4 5 2 3 1 2 3 4 3 6 5 3 7 8 6 8 8 8 9 7 6 5 3 5 6 7 8
15 13 16 27 33 37 35 32 37 37 19 9 12 11 10 11 10 6 3 3 6 9 8 4 3 5 7 4 4 8 4 2 5 5 3 3 3 7 9 5 7 15 14 6 2 3 5 2 4 1 1 3 1 4 3 2 4 5 3 6 2 2 2 2 1 3 3 4 5 3 7 5 2 6 5 1 5 10 12 10 7 7 6 7 8 7 7 7
14 10 10 23 34 37 36 37 40 29 11 7 12 11 10 13 12 8 4 3 6 9 7 6 6 6 8 7 6 8 7 4 6 6 4 4 5 8 12 6 6 16 16 7 2 3 4 2 4 1 3 2 2 4 3 4 3 5 4 5 4 1 1 2 2 2 1 4 5 3 6 5 6 6 2 2 7 10 12 9 6 9 9 9 10 7 7 6
12 6 6 18 33 37 39 41 34 17 6 7 10 9 10 14 16 12 4 2 3 8 8 9 6 4 6 8 6 6 8 7 9 7 5 5 5 7 13 10 7 13 15 10 5 3 3 3 3 1 1 1 2 2 4 2 1 3 1 2 2 2 3 3 3 3 3 3 4 3 2 4 7 7 7 9 11 10 10 7 7 11 12 11 10 7 7 8
8 4 4 12 27 38 43 37 20 7 5 7 9 8 8 11 13 11 4 2 1 4 6 7 6 5 6 7 7 7 8 8 9 8 6 7 6 5 10 11 6 8 12 12 8 2 2 3 3 1 2 1 3 4 8 10 6 3 4 4 3 1 2 1 1 2 3 3 3 4 5 6 5 5 9 11 11 10 9 8 8 10 11 11 9 8 8 9
5 5 3 10 26 40 37 20 8 6 5 5 9 9 7 6 6 8 8 5 4 3 2 2 4 6 7 7 7 7 7 6 8 8 5 7 8 5 7 11 9 8 9 8 8 5 3 3 4 2 2 4 5 4 5 8 7 6 7 8 8 6 4 2 3 2 2 3 4 3 7 8 4 4 7 8 8 9 9 9 9 9 11 11 8 8 9 9
5 5 4 15 34 40 24 6 5 7 5 6 10 9 6 4 3 5 10 10 9 7 2 1 4 6 6 7 8 7 7 6 7 7 6 9 10 7 7 11 13 14 12 9 11 9 4 3 3 3 4 5 6 4 2 4 3 3 3 5 6 5 5 5 5 4 2 3 3 2 6 9 4 5 7 6 7 6 6 7 8 9 10 8 7 7 7 8
4 6 4 19 41 37 13 6 9 7 5 7 8 6 3 3 4 4 8 12 11 9 6 5 5 5 5 5 7 8 8 7 9 11 8 8 9 7 7 11 13 14 11 7 8 5 3 3 3 1 2 3 4 4 4 2 3 3 2 3 6 8 7 6 5 4 3 5 4 2 6 8 3 1 2 3 4 4 4 5 8 9 9 7 7 6 6 7
4 5 3 18 42 33 8 7 10 6 6 7 6 7 6 4 5 7 9 12 12 9 10 10 7 6 5 4 6 10 11 8 9 14 11 6 7 7 9 13 15 13 9 6 8 6 4 4 4 2 1 3 4 3 3 2 2 3 4 5 8 10 8 3 0 3 3 9 8 5 9 7 2 5 4 3 4 5 6 6 7 8 9 7 6 5 6 8
3 4 2 11 28 23 7 7 9 7 11 11 9 11 11 5 6 10 10 10 9 7 9 11 8 5 3 3 4 8 12 12 10 10 9 5 4 4 8 14 15 13 10 9 12 10 6 5 6 6 7 8 7 6 5 3 3 2 4 6 8 10 11 7 2 4 9 8 8 8 12 7 1 4 5 4 3 5 7 7 6 7 8 7 5 6 7 8
3 4 2 4 10 10 7 8 9 7 11 13 9 10 14 10 5 8 9 8 9 9 9 9 6 5 4 5 5 5 10 14 10 5 7 8 4 2 7 12 14 14 12 10 11 8 4 5 10 12 13 13 11 6 5 8 7 6 8 11 12 13 13 9 6 8 8 1 3 13 13 10 10 5 5 7 5 5 8 8 7 7 7 8 7 7 6 7
3 4 3 3 4 7 8 7 8 8 10 13 8 8 16 16 9 6 7 8 9 11 10 7 4 7 9 9 9 8 9 10 8 5 7 9 5 2 2 8 13 15 12 9 9 6 4 4 12 15 16 17 13 7 9 12 12 13 13 13 15 16 14 13 14 12 5 4 11 15 8 11 20 11 9 11 7 7 10 8 8 8 7 7 5 4 6 7
4 4 3 1 2 6 9 9 9 10 12 14 9 9 16 19 14 9 7 8 9 9 8 7 8 12 15 15 13 11 10 9 10 10 8 5 3 0 1 2 6 9 8 7 6 5 4 6 12 15 16 18 17 9 11 13 12 12 15 16 17 17 17 20 22 15 7 7 20 17 8 13 22 13 11 13 9 11 13 10 8 7 5 4 4 6 8 8
4 4 3 1 1 4 8 11 12 11 13 14 10 11 15 18 19 15 9 7 8 9 10 11 15 19 19 16 12 11 12 11 12 12 8 5 5 4 3 2 2 3 6 7 5 3 4 6 10 13 14 17 17 9 11 12 10 8 13 16 18 21 24 24 23 18 13 15 24 20 11 18 19 8 9 10 10 12 11 7 6 6 6 7 8 9 9 9
3 2 2 1 2 4 6 7 9 8 9 11 11 11 13 16 20 17 11 10 10 11 14 17 20 19 18 15 12 14 17 15 14 12 8 8 8 6 6 5 3 2 4 6 4 1 2 4 5 7 9 14 15 8 9 12 11 10 12 14 18 22 22 19 17 15 14 17 22 20 17 20 12 5 7 7 7 8 8 7 9 8 9 9 9 9 10 10
7 3 2 1 3 4 4 3 5 6 7 9 9 9 11 15 18 16 13 15 16 13 15 21 21 14 12 15 15 17 19 18 17 13 7 8 8 6 5 5 6 6 6 5 3 2 2 1 1 4 6 12 12 8 8 9 9 10 14 19 23 20 14 12 13 14 15 17 20 16 15 18 10 4 7 7 7 8 10 10 11 10 9 10 10 12 12 11
9 5 3 2 3 4 3 3 4 6 6 8 10 11 12 14 15 14 10 10 14 14 14 20 21 12 10 17 21 22 21 18 16 11 5 4 6 5 5 4 6 9 8 5 2 1 4 4 1 4 6 10 7 8 9 6 4 8 16 22 21 14 10 11 14 16 16 16 15 13 15 20 11 6 8 8 7 10 12 11 12 11 9 10 11 13 13 13
Wind_Direction
201 200 192 208 260 317 2 330 240 208 196 192 183 198 198 190 196 200 210 217 231 253 263 272 281 295 306 312 321 336 347 350 7 87 109 214 229 186 60 79 111 78 34 9 11 24 34 24 5 4 14 20 18 351 349 6 52 55 79 85 91 158 163 175 181 197 178 166 197 223 174 131 158 222 143 39 42 76 62 34 0 2 25 69 112 123 137 153
187 190 194 206 236 289 357 347 291 229 209 191 181 204 203 193 201 204 210 218 234 252 262 272 282 294 307 315 322 339 344 342 164 48 12 262 212 182 175 125 124 59 21 18 25 26 30 357 341 0 28 35 350 358 7 359 55 82 108 88 163 197 197 198 184 199 188 158 171 194 171 148 169 174 134 125 299 129 92 15 357 24 23 68 112 130 149 162
194 191 181 193 252 308 293 7 345 269 226 200 198 206 203 201 203 206 212 219 231 244 261 270 283 298 307 312 327 341 338 359 143 333 5 136 159 158 146 122 97 36 30 33 22 17 14 321 328 4 38 41 351 12 33 16 39 114 106 83 222 209 191 232 185 188 204 157 144 164 175 155 179 172 138 155 172 177 167 186 164 202 211 180 154 134 143 158
206 196 178 186 248 334 330 16 359 312 249 215 203 197 213 234 213 211 217 219 232 242 255 269 287 299 304 314 333 337 347 60 155 281 111 123 132 133 123 105 61 42 35 26 14 5 349 331 356 40 55 34 336 23 45 0 36 86 97 142 205 175 130 233 212 159 139 136 141 142 122 142 204 188 151 138 138 229 237 209 191 194 190 180 182 146 138 144
204 209 192 192 195 293 316 248 325 339 292 240 197 184 199 271 241 225 224 229 238 245 262 277 292 303 308 319 334 330 6 64 243 214 129 132 125 121 110 85 52 42 25 21 14 10 357 4 49 44 57 48 342 31 27 297 76 69 16 186 185 140 128 236 240 155 116 111 109 121 133 162 184 138 164 152 164 223 232 220 204 185 173 169 167 154 141 137
199 197 191 231 239 223 244 239 199 225 278 249 196 184 198 244 246 237 239 249 252 265 281 290 303 312 314 323 335 336 60 92 243 173 146 140 125 119 105 80 61 33 16 28 27 32 28 30 51 45 48 51 17 60 307 308 56 99 325 289 209 166 149 198 214 191 113 109 121 154 173 138 107 286 200 170 202 229 247 225 188 159 157 156 150 149 145 143
215 214 210 260 299 271 253 266 212 203 200 205 199 188 208 247 295 259 254 265 267 281 291 305 316 315 324 331 342 19 101 225 221 164 157 144 132 125 113 100 91 37 19 39 28 40 62 45 59 103 72 61 106 103 27 344 37 93 155 290 295 144 143 171 165 130 108 126 175 162 122 145 168 216 249 198 225 235 314 103 134 137 141 145 142 147 153 153
230 238 248 279 298 303 287 268 236 215 202 196 201 196 225 275 2 322 298 266 265 285 293 309 320 322 334 339 24 36 15 232 183 167 163 150 142 134 126 122 128 36 52 44 25 48 78 58 81 131 82 83 146 118 32 17 25 72 152 249 330 35 159 182 146 127 128 137 144 109 139 226 201 180 300 238 218 165 113 97 115 126 130 140 146 153 155 155
231 236 246 262 272 301 321 310 274 228 219 211 205 203 246 338 350 330 305 276 261 272 291 315 316 327 339 7 83 73 279 204 172 172 166 161 157 147 150 146 216 45 65 47 38 70 80 93 177 164 144 176 112 91 21 51 347 177 158 208 15 335 309 167 159 166 168 156 122 126 234 268 260 241 283 239 186 161 120 101 115 126 132 150 154 163 161 161
232 238 244 247 256 290 317 329 304 258 244 230 222 218 232 316 331 323 305 281 267 271 299 317 310 335 349 26 83 144 263 166 171 175 170 174 172 168 184 211 253 49 65 49 47 62 83 160 211 138 130 131 85 60 0 84 177 183 140 166 157 314 312 165 191 223 184 187 169 173 241 277 315 258 256 248 168 157 123 117 139 138 152 167 160 173 168 170
243 239 243 243 241 273 299 327 313 279 257 241 239 239 239 286 324 321 312 268 260 275 301 316 327 338 351 62 110 217 231 158 173 176 178 183 182 195 208 214 212 63 61 65 64 62 72 134 175 113 93 81 78 23 344 122 139 131 116 271 308 338 311 207 210 238 153 211 180 163 237 289 345 232 238 223 165 162 141 147 168 157 171 175 171 179 173 179
269 255 249 250 233 239 268 308 325 308 277 257 251 252 253 277 316 316 289 232 255 282 302 319 340 340 25 63 156 219 208 176 180 180 185 189 190 203 192 190 173 73 55 73 81 69 57 23 72 99 68 134 114 27 195 169 102 96 60 335 311 357 338 254 228 197 160 188 179 139 330 297 246 225 254 202 157 149 144 162 180 178 186 181 180 182 183 187
281 278 275 272 260 252 252 277 315 325 309 284 264 257 259 271 307 289 213 204 225 252 282 299 324 27 64 29 240 226 208 189 185 183 182 185 189 194 177 174 155 86 64 75 91 85 62 24 70 107 121 107 134 233 122 54 65 66 42 48 318 4 337 286 348 151 156 173 169 133 298 275 249 244 257 158 153 137 151 186 193 193 195 189 189 185 196 196
274 280 287 285 285 286 279 268 278 311 321 304 279 256 237 212 206 214 184 184 191 215 254 240 291 54 81 241 260 236 210 195 185 178 174 179 173 167 165 160 143 116 91 82 87 74 57 36 73 89 88 94 145 146 44 11 28 40 17 37 6 19 284 296 346 145 153 188 143 120 223 263 271 271 237 175 167 156 176 203 200 203 202 197 198 191 203 205
272 276 283 288 294 300 294 276 268 284 311 309 291 255 202 173 181 185 165 178 175 189 217 200 206 93 71 281 278 217 201 192 183 177 171 175 164 154 154 146 133 114 105 95 95 74 48 63 80 78 355 18 64 70 26 353 8 37 22 320 345 148 268 307 311 159 156 210 103 119 223 268 275 279 227 173 175 172 188 206 204 209 205 200 203 197 205 211
271 273 278 284 293 302 295 282 274 272 297 309 290 206 173 165 168 161 161 154 142 150 96 87 143 112 104 275 279 202 202 193 187 180 173 173 170 157 143 132 116 109 114 101 105 97 48 53 69 87 147 51 71 83 46 16 349 355 99 248 267 171 276 319 321 203 164 139 142 171 230 271 280 293 235 174 181 187 201 215 212 212 209 205 203 199 201 204
266 269 272 279 291 302 301 290 282 284 306 301 253 181 161 146 154 155 147 135 129 107 75 81 95 97 131 233 206 234 203 188 189 181 175 174 173 159 140 122 104 105 103 84 87 80 34 36 39 313 57 60 90 95 58 349 304 317 9 233 243 205 225 298 305 284 133 135 213 225 237 252 263 283 246 202 188 191 216 224 218 214 211 207 201 202 205 201
258 263 266 270 280 293 303 299 291 296 302 277 214 156 133 118 118 121 130 141 121 76 49 37 71 84 258 220 194 213 176 178 183 177 176 170 163 156 134 114 115 100 77 49 42 45 21 18 49 53 25 25 72 98 130 226 213 194 192 205 251 239 216 250 278 238 148 156 222 209 243 256 263 269 242 217 192 197 224 229 225 222 214 208 203 205 210 207
253 257 259 262 266 277 293 303 299 282 277 269 153 127 112 90 75 104 124 138 132 110 182 216 151 147 231 225 174 123 132 155 164 173 175 164 161 155 114 103 103 92 89 68 353 1 78 41 57 106 205 220 186 163 185 203 174 168 176 156 177 215 247 239 256 243 177 159 228 215 232 251 257 262 248 221 195 208 234 240 240 234 219 211 210 212 211 212
249 249 251 254 255 264 277 298 304 273 260 200 136 123 113 86 56 347 272 178 204 181 158 203 184 156 225 240 136 121 124 131 149 179 175 167 162 146 93 75 64 57 105 150 193 292 101 109 179 194 207 205 197 199 200 170 136 138 138 140 183 198 264 259 260 271 184 152 245 226 232 254 255 260 258 224 183 217 240 244 243 232 220 213 213 216 213 214
246 245 247 246 247 254 262 290 302 271 251 179 138 120 144 152 123 236 243 255 255 239 231 229 199 220 284 166 156 145 129 102 15 185 176 173 158 146 124 69 84 58 225 159 140 36 87 151 222 222 210 199 198 206 210 171 134 132 148 209 254 210 248 259 245 286 221 167 261 248 239 259 256 258 264 222 173 219 230 231 238 231 222 218 216 220 214 202
243 243 243 239 241 244 253 280 278 233 231 189 151 133 186 145 88 1 170 275 271 243 231 237 265 282 271 169 171 160 99 97 195 214 183 169 157 168 162 98 132 175 192 121 99 51 86 218 238 230 191 160 197 191 184 218 226 238 177 187 262 243 266 281 273 309 2 175 262 272 256 261 259 259 264 240 208 227 228 224 234 230 222 221 216 218 205 185
240 240 239 235 233 231 244 256 220 214 225 199 191 181 150 117 77 36 111 132 293 249 215 209 214 232 228 193 185 177 134 159 174 223 190 164 161 183 145 139 165 147 136 155 155 149 165 247 244 215 147 145 216 181 150 190 242 236 197 175 242 251 256 276 286 315 306 213 258 279 278 268 265 265 261 249 231 239 241 234 238 232 226 224 216 211 201 194
238 236 235 232 223 215 230 229 200 223 227 216 222 194 138 122 94 52 77 191 294 267 221 202 198 198 197 198 182 179 205 190 164 194 188 166 142 164 160 163 151 131 175 190 177 176 207 244 236 149 150 171 200 202 158 166 240 245 212 196 217 228 215 226 276 325 331 326 320 317 302 276 253 249 254 262 273 265 251 242 246 241 234 229 221 215 208 200
236 234 232 227 217 203 205 210 206 219 217 225 230 200 147 125 87 52 60 28 287 284 272 207 193 199 195 178 170 172 187 234 205 184 181 172 152 146 181 166 131 174 202 185 175 207 235 238 111 112 148 171 187 215 188 173 210 260 229 205 204 201 213 231 352 21 1 329 327 10 301 280 271 248 255 279 319 279 252 231 241 244 239 227 221 218 209 197
234 232 228 223 212 191 186 211 214 207 202 229 225 195 173 162 99 79 85 42 280 265 222 186 178 190 186 162 157 144 92 248 244 165 172 178 171 135 151 169 98 198 192 160 173 226 231 223 171 142 150 160 184 226 219 178 170 252 239 200 194 184 199 232 158 82 265 263 294 63 197 271 291 249 246 259 265 266 260 248 249 248 242 228 223 217 198 185
232 230 225 220 209 187 180 196 191 181 189 238 217 186 184 185 159 185 95 24 278 201 145 198 179 170 175 164 155 136 193 223 95 139 171 182 191 102 138 182 140 197 178 132 221 247 192 203 200 176 159 160 182 224 222 171 152 239 239 161 159 168 190 209 174 178 227 260 314 18 113 270 282 249 239 241 249 266 267 263 263 255 244 235 228 213 194 190
230 227 222 217 208 197 192 172 169 175 172 193 188 180 176 174 175 149 99 289 272 142 134 233 146 142 147 160 158 141 232 186 119 190 194 162 195 69 164 198 175 186 180 150 217 257 166 180 194 183 178 191 202 216 191 158 164 242 203 125 128 149 156 130 129 168 324 359 300 302 109 254 273 263 268 257 242 264 265 257 260 259 251 238 227 215 198 193
230 227 222 215 207 204 203 189 180 185 173 120 151 174 164 156 168 75 84 209 255 106 144 138 135 129 95 147 168 142 35 48 131 213 50 129 188 56 178 200 160 177 197 167 200 242 158 188 191 170 179 206 206 221 178 165 192 212 127 92 67 75 77 74 97 105 39 334 243 221 176 233 270 250 236 324 234 252 259 257 255 258 258 241 223 215 198 188
231 226 219 208 199 197 197 206 211 194 178 153 141 158 151 138 134 98 163 219 241 235 188 128 167 165 141 152 184 165 95 36 6 104 64 124 45 29 158 152 95 148 237 355 202 236 312 274 202 162 179 189 143 91 159 173 170 129 97 63 42 32 36 46 51 76 42 280 238 213 194 199 270 261 195 213 221 221 236 258 265 266 270 250 221 205 192 186
231 223 215 203 196 192 185 206 216 200 184 181 150 144 142 92 74 158 201 230 350 207 147 148 185 146 156 163 174 184 123 47 143 145 144 151 74 46 93 115 78 97 306 317 302 309 341 357 247 243 163 127 98 79 33 32 93 101 87 76 60 349 7 20 0 46 210 257 246 234 195 177 234 259 229 244 255 230 218 233 251 259 268 253 225 205 192 186
234 224 215 206 201 194 189 207 209 193 172 166 159 150 145 120 185 214 217 81 300 210 165 176 195 166 170 173 175 174 151 136 182 167 162 156 167 182 187 188 164 124 243 238 248 327 311 238 257 311 213 139 114 96 31 11 39 83 99 105 107 308 347 345 310 37 229 255 265 279 128 190 236 249 255 264 267 254 232 223 232 249 266 260 229 209 193 179
243 228 216 208 204 200 200 211 201 179 163 160 165 165 143 170 199 208 207 194 208 206 150 150 166 163 167 171 184 170 137 168 180 172 172 153 176 208 224 220 181 146 192 193 177 186 267 294 308 187 266 189 157 161 173 219 156 145 142 139 152 173 256 269 266 269 259 268 294 354 146 245 272 256 240 242 249 256 257 250 244 246 263 268 241 203 188 182
257 232 217 208 207 206 205 207 189 170 162 158 157 148 170 193 199 196 208 215 202 78 91 131 131 147 165 173 193 169 147 212 178 155 164 151 170 212 230 238 213 144 104 150 171 176 210 282 215 180 215 190 183 189 166 138 156 181 151 138 157 158 174 221 215 224 254 281 298 303 188 209 212 250 241 235 254 279 287 281 272 257 264 279 235 177 180 189
276 240 221 210 208 208 205 200 183 168 160 151 144 174 187 196 200 203 213 210 180 59 49 109 113 136 184 243 250 182 163 206 176 149 167 173 185 200 195 209 203 169 131 171 210 164 193 265 238 208 201 170 182 194 117 109 135 234 111 115 179 180 177 224 208 181 190 291 287 237 226 223 205 260 269 253 274 297 294 289 293 288 293 314 183 189 190 193
285 262 226 210 208 207 203 196 178 167 161 148 156 188 201 204 205 208 207 189 172 131 109 105 95 135 188 213 245 210 173 117 156 160 196 202 219 206 199 210 196 186 182 175 180 155 165 278 275 354 17 175 180 164 130 142 174 168 132 170 204 172 154 201 270 81 88 260 263 205 243 287 309 277 271 248 257 276 281 279 279 286 301 273 226 212 202 200
282 277 231 214 212 206 200 193 176 169 164 160 175 188 203 215 219 214 194 166 155 137 133 165 170 158 179 189 208 204 184 114 156 174 190 193 242 210 203 229 195 195 201 176 176 195 157 252 281 121 159 249 209 103 67 29 133 130 180 201 163 64 102 118 253 345 34 251 266 228 239 269 269 270 310 80 228 255 258 255 266 282 280 258 243 219 209 207
276 271 238 225 217 205 197 189 178 172 168 177 189 195 202 217 225 216 187 128 133 145 162 201 193 167 177 190 198 184 177 174 174 186 184 189 242 202 184 204 204 201 206 186 204 230 150 199 294 108 171 273 14 92 62 1 97 130 187 187 119 122 206 115 172 234 208 250 282 267 240 240 209 228 292 172 207 240 252 246 250 260 250 246 246 224 209 204
266 259 256 231 216 205 194 185 179 178 173 178 195 202 206 219 225 216 186 83 143 169 187 204 193 174 182 180 169 165 183 188 172 180 189 189 233 206 179 188 204 201 199 184 192 214 151 193 260 296 183 296 29 122 174 210 61 62 111 147 105 150 178 162 172 173 166 230 280 292 263 240 222 209 200 209 212 221 240 240 234 245 243 240 239 220 203 201
247 243 260 221 209 200 189 182 182 193 180 182 199 200 200 218 227 225 224 333 282 184 199 207 179 166 187 182 168 168 190 194 175 184 205 193 215 233 191 184 180 181 183 185 195 181 137 206 227 300 339 164 192 199 186 184 173 142 152 167 186 168 111 175 217 131 138 185 238 279 279 255 236 203 192 205 214 212 217 226 232 243 246 242 232 214 206 201
217 243 244 194 193 188 180 180 198 199 181 194 208 208 204 210 221 220 215 231 258 234 203 224 198 184 179 180 188 182 178 187 184 191 215 206 207 233 204 177 157 148 151 178 208 201 183 196 170 168 216 203 224 252 213 195 185 173 183 188 189 177 135 170 251 212 155 198 190 217 271 261 229 193 194 199 208 210 206 212 231 246 247 245 234 213 207 200
214 245 219 178 180 175 169 194 216 186 190 202 203 205 203 206 212 196 190 201 230 242 252 295 233 210 182 178 193 184 167 179 192 195 223 219 209 216 208 181 161 155 152 173 204 197 148 116 133 170 218 219 238 276 269 213 171 132 193 191 175 178 154 164 226 226 185 232 190 141 275 273 242 187 196 201 207 218 212 201 222 250 252 249 237 215 204 201
222 245 226 178 176 170 166 217 198 187 216 209 205 208 203 215 216 186 172 184 205 222 227 231 212 209 212 183 174 179 179 186 194 199 218 226 218 217 197 177 161 159 165 176 193 184 111 124 157 193 313 316 305 322 359 35 106 112 233 181 167 199 193 179 206 186 181 233 190 134 264 268 289 255 227 252 255 264 263 216 218 249 265 258 235 213 194 198
241 247 249 182 179 175 176 213 192 192 213 209 210 213 231 248 210 198 186 184 193 201 213 222 204 194 214 174 162 184 189 194 205 208 212 214 222 218 186 174 168 169 182 182 168 171 178 176 151 139 259 329 331 317 328 313 181 192 224 198 190 201 192 192 130 110 239 233 179 183 252 244 277 317 323 336 309 285 270 250 229 240 258 261 240 213 195 195
267 241 252 191 187 185 195 208 195 193 200 202 200 203 220 232 195 203 203 194 198 192 205 223 212 189 200 171 179 191 192 205 216 209 212 224 250 231 188 183 181 182 198 191 171 168 174 176 163 175 207 218 218 217 211 190 172 201 220 194 199 202 190 199 210 189 239 232 159 200 246 240 265 314 306 300 297 281 266 260 252 243 254 262 238 212 203 195
269 242 202 194 201 207 218 207 197 196 197 198 198 201 213 218 200 200 202 203 208 200 209 226 203 191 224 211 212 209 203 219 224 196 201 213 226 243 195 188 191 197 198 183 170 158 139 182 189 195 210 218 221 211 151 135 153 202 207 188 199 209 197 197 219 219 223 182 188 226 237 258 266 248 257 266 246 247 256 253 259 258 258 258 237 217 209 197
246 252 211 189 214 227 233 219 200 199 196 191 188 189 202 213 217 193 190 208 211 203 216 229 179 182 210 212 222 229 216 223 231 219 212 207 205 275 215 190 199 202 190 173 170 147 111 193 203 207 217 225 229 207 151 155 179 199 199 191 202 208 196 199 219 221 166 114 254 244 198 246 261 239 230 251 231 232 250 240 244 250 244 244 230 204 208 199
223 254 257 259 247 220 223 219 202 203 202 193 188 189 197 206 210 196 190 208 213 203 208 222 205 201 208 205 209 223 222 222 228 227 223 205 183 200 6 195 208 195 169 170 187 154 142 201 208 211 222 231 233 207 161 175 193 196 197 198 203 203 200 208 219 218 164 184 251 252 173 222 256 247 226 234 215 224 238 225 228 242 236 224 198 198 212 204
220 254 273 303 282 240 237 223 203 201 205 197 197 204 201 203 206 204 195 193 208 206 201 214 216 211 212 206 197 210 214 211 223 224 209 182 176 171 163 187 228 188 158 173 194 174 177 204 203 205 219 236 238 205 164 184 201 203 206 205 204 205 206 211 217 217 205 217 245 254 236 243 255 237 214 220 208 224 239 228 224 227 220 214 204 214 223 210
210 253 267 289 272 268 277 242 201 194 202 199 205 211 204 204 206 206 200 190 195 199 201 216 220 212 210 206 199 215 215 207 218 218 179 171 190 188 190 191 176 165 169 171 174 194 215 210 190 181 207 239 240 204 167 189 202 213 222 219 217 216 213 213 218 218 216 230 245 252 258 260 253 197 217 220 193 222 247 242 235 229 221 216 210 223 227 218
227 259 262 314 293 250 264 261 197 191 202 200 207 211 208 212 208 202 205 205 202 197 197 213 220 212 207 208 207 220 221 212 219 219 181 183 199 193 206 203 165 162 175 173 158 136 174 205 45 130 193 239 236 189 179 203 210 226 237 232 226 221 214 211 216 214 208 222 239 247 254 258 245 195 238 226 178 213 236 233 236 235 222 213 214 224 227 223
226 252 228 230 274 233 236 284 227 209 208 195 200 207 213 219 209 199 208 215 215 214 207 211 215 205 201 211 213 220 222 216 223 226 201 210 234 224 217 204 170 166 163 157 151 118 152 162 145 148 197 246 234 157 168 198 215 240 242 236 229 216 203 210 221 222 212 211 227 231 239 250 244 195 227 231 199 218 231 229 233 235 224 217 219 224 227 225